Location: Glens Falls
(43.3090°N, 73.6440°W)
Time: 04:32:41
(UTC-04:00)

Daily predictions for brighter satellites

Satellite Brightness Start Highest point End
(mag) Time Altitude Azimuth Time Altitude Azimuth Time Altitude Azimuth
ATLAS 2AS CENTAUR R/B 4.5 01:50:31 30° NE 01:50:31 30° NE 01:54:14 10° NE
Cosmos 2333 Rocket 4.4 02:52:53 10° N 02:55:05 20° N 02:55:05 20° N
SL-16 R/B 3.8 03:07:09 35° N 03:07:09 35° N 03:10:49 10° N
BREEZE-M DEB (TANK) 4.5 03:08:22 46° ENE 03:08:22 46° ENE 03:16:21 10° ESE
Lacrosse 5 rocket 4.4 03:13:42 15° NE 03:13:42 15° NE 03:14:32 10° NE
ARIANE 5 R/B 4.5 03:12:20 10° NNE 03:14:31 25° NNE 03:14:31 25° NNE
Cosmos 2237 Rocket 3.6 03:15:18 10° N 03:23:09 23° ESE 03:25:35 10° ESE
ATLAS 5 CENTAUR R/B 3.3 03:22:13 44° NE 03:22:13 44° NE 03:28:13 10° ESE
Cosmos 2219 4.4 03:39:38 35° N 03:39:38 35° N 03:42:53 10° NNE
ATLAS 2AS CENTAUR R/B 3.8 03:37:58 39° NW 03:37:58 39° NW 03:45:20 10° NNE
SL-16 R/B 4.3 03:35:56 10° N 03:40:35 25° NE 03:45:11 10° ESE
Okean O Rocket 3.7 03:41:22 10° NE 03:44:48 23° E 03:44:48 23° E
CZ-2D R/B 3.1 03:42:59 10° NNE 03:46:22 41° NNE 03:46:22 41° NNE
Cosmos 2227 Rocket 2.8 03:53:48 50° ESE 03:53:50 50° ESE 03:59:18 10° NE
Cosmos 2344 3.5 03:57:11 71° SW 03:58:11 84° NW 04:07:05 10° NE
Cosmos 2297 Rocket 3.1 04:01:58 39° SE 04:03:04 43° ESE 04:08:23 10° NE
NOSS 3-2 (A) 3.8 03:57:07 10° NW 04:04:37 82° WSW 04:12:43 10° SSE
RESURS DK-1 3.8 04:09:30 35° E 04:09:30 35° E 04:12:33 10° NE
Resurs 1-4 Rocket 2.9 04:05:29 10° N 04:09:11 43° NNW 04:09:11 43° NNW
CZ-2C R/B 4.4 04:13:23 29° SE 04:15:27 53° ENE 04:19:59 10° N
Tiangong 1 4.1 04:22:01 15° E 04:22:01 15° E 04:22:40 10° E
PSLV R/B 4.4 04:22:07 10° NNE 04:25:43 59° ENE 04:25:43 59° ENE
Lacrosse 5 1.7 04:27:02 88° NE 04:27:02 88° NE 04:32:04 10° NE
USA 215 4.0 04:21:08 10° SSE 04:25:09 34° S 04:25:09 34° S
EXPRESS MD2 4.3 04:30:08 39° NE 04:30:08 39° NE 04:33:58 10° E
Cosmos 1727 Rocket 3.9 04:28:18 44° S 04:30:28 86° W 04:36:50 10° N
MOZ.5/SAFIR/RUBIN 5/SL-8 3.9 04:33:27 63° NW 04:33:27 63° NW 04:37:30 10° NNW
DELTA 2 R/B (1) 4.3 04:32:49 37° S 04:33:24 38° SSE 04:38:31 10° E
Cosmos 2082 3.5 04:33:43 64° SW 04:34:38 83° WNW 04:40:18 10° NNE
PAYLOAD B 4.4 04:31:06 10° NNE 04:36:36 69° ESE 04:40:03 23° S
MOS 1-B 4.3 04:31:20 10° N 04:37:01 60° WNW 04:37:38 56° W
CENTAUR R/B 3.8 04:30:23 10° NNW 04:37:54 53° NE 04:45:58 10° ESE
ADEOS Rocket 3.9 04:30:57 10° NNE 04:37:58 55° E 04:44:15 10° S
FALCON 9 R/B 4.4 04:36:48 16° S 04:41:35 30° SE 04:57:36 10° E
Cosmos 1459 Rocket 4.4 04:35:34 10° N 04:41:54 64° E 04:48:10 10° SSE
Cosmos 2333 Rocket 4.5 04:36:54 10° NW 04:48:08 - S 04:36:54 10° NW
NOSS 3-2 (C) 3.9 04:35:47 10° NW 04:43:11 61° WSW 04:51:06 10° SSE
BREEZE-M DEB (TANK) 3.1 04:44:43 58° S 04:45:09 64° SSE 04:47:51 10° ENE
SL-16 R/B 4.3 04:52:16 15° NW 04:52:16 15° NW 04:53:42 10° NW
Cosmos 2058 Rocket 3.6 04:44:28 10° N 04:48:46 58° E 04:53:04 10° SSE
Lacrosse 5 rocket 3.4 04:49:25 19° NNW 04:50:01 20° NNW 04:53:19 10° NNE
Okean-O 4.1 04:45:58 10° NNE 04:50:05 36° E 04:54:09 10° SSE
CZ-4B R/B 3.0 04:49:58 10° NNE 04:54:23 88° WNW 04:56:14 36° SSW
ARIANE 5 R/B 4.2 04:52:25 10° NNW 04:54:51 18° NW 04:54:51 18° NW
Cosmos 1605 Rocket 4.4 04:55:36 10° NNW 05:01:11 38° W 05:02:13 35° WSW
Meteor 1-19 Rocket 4.2 04:59:00 33° SW 05:01:25 60° WNW 05:06:58 10° N
CZ-4B R/B 3.1 04:57:43 10° N 05:03:08 77° WNW 05:07:14 18° SSW
Cosmos 1666 2.5 05:00:08 10° NNW 05:04:00 72° W 05:07:38 11° S
Cosmos 2237 Rocket 2.8 04:59:23 10° NW 05:05:43 32° SW 05:09:34 10° S
Cosmos 1025 Rocket 3.2 05:05:15 47° W 05:05:36 48° WNW 05:09:48 10° N
ADEOS II 2.6 05:01:05 10° NNE 05:06:18 60° E 05:11:29 10° S
OE (NEXTSAT) 4.3 05:06:23 65° SW 05:06:37 68° SSW 05:10:13 10° ESE
ATLAS 5 CENTAUR R/B 2.8 05:04:00 26° WNW 05:06:56 41° WSW 05:12:56 10° S
NOSS 3-4 (A) 3.9 05:05:23 33° W 05:07:54 49° NW 05:14:17 10° NNE
NOSS 3-4 (C) 3.9 05:05:28 33° W 05:08:00 49° NW 05:14:24 10° NNE
Okean 2 3.2 05:06:40 26° SSW 05:08:57 79° W 05:13:07 10° N
Cosmos 2112 Rocket 4.3 05:04:45 10° NW 05:09:41 40° WSW 05:14:33 10° S
Meteor 2-4 Rocket 3.8 05:07:51 15° SSW 05:12:44 67° WNW 05:18:40 10° N
Cosmos 1680 Rocket 4.4 05:09:16 10° NW 05:16:33 20° SSW 05:18:30 10° SSW
ASTRO F (AKARI) 4.1 05:14:54 10° S 05:18:02 71° WSW 05:21:18 10° NNW
Meteor 1-23 Rocket 4.2 05:14:16 12° SSW 05:19:30 64° WNW 05:25:11 10° N
Cosmos 1626 Rocket 4.5 05:15:59 10° SSE 05:20:13 50° E 05:24:26 10° NNE
Okean O Rocket 2.3 05:17:21 10° N 05:21:19 34° WNW 05:22:15 31° W
Cosmos 1606 Rocket 4.0 05:18:21 10° NNW 05:22:23 37° W 05:25:37 14° SSW
SL-16 R/B 2.2 05:19:29 10° NNW 05:25:04 57° WSW 05:30:35 10° S
CZ-2D R/B 3.8 05:24:57 10° NNW 05:27:38 14° WNW 05:27:41 14° WNW
Meteor 2-9 Rocket 4.4 05:22:28 10° NNW 05:27:55 51° W 05:33:30 10° SSW
Meteor PRIRODA 3.7 05:24:28 10° NNE 05:28:12 80° E 05:31:55 10° S
Cosmos 1726 Rocket 4.1 05:29:02 10° NNW 05:33:00 34° W 05:36:55 10° SSW
Cosmos 2227 Rocket 3.2 05:35:40 20° W 05:38:09 27° NW 05:42:57 10° N
Cosmos 2298 Rocket 4.1 05:33:43 12° SW 05:38:34 55° WNW 05:43:48 10° NNE
Cosmos 2061 Rocket 4.2 05:33:56 10° NNW 05:39:59 49° W 05:46:03 10° SSW
Cosmos 2100 Rocket 4.3 05:34:21 10° NNW 05:40:12 44° W 05:46:06 10° SSW
Cosmos 1802 Rocket 4.1 05:35:44 10° NNW 05:41:42 53° W 05:47:36 10° SSW
Cosmos 1602 Rocket 3.5 05:39:20 10° S 05:43:47 89° W 05:48:14 10° N
Cosmos 1892 Rocket 4.4 05:43:30 14° SW 05:46:37 30° WNW 05:50:36 10° NNW
RESURS DK-1 3.8 05:45:28 18° W 05:46:54 21° NW 05:50:05 10° N
Cosmos 1346 Rocket 3.9 05:45:29 19° WSW 05:47:02 24° WNW 05:50:20 10° NNW
Cosmos 2297 Rocket 3.1 05:43:49 17° WSW 05:47:14 31° NW 05:52:14 10° N
Aureole 2 Rocket 2.9 05:44:58 10° NW 05:48:08 34° WSW 05:51:01 10° S
Thor Agena Rocket 4.1 05:43:37 10° SSW 05:48:27 36° W 05:53:20 10° NNW
PSLV R/B 4.0 05:45:51 10° N 05:49:55 40° WNW 05:53:56 10° SW
SeaSat 1 4.2 05:46:43 10° ESE 05:51:07 34° NE 05:55:32 10° N
SKYMED 2 4.4 05:46:58 10° SSE 05:51:12 55° ENE 05:55:27 10° N
Cosmos 1725 Rocket 4.0 05:46:06 10° N 05:52:24 78° W 05:58:38 10° S
Cosmos 2150 Rocket 4.2 05:47:48 10° SW 05:52:45 47° WNW 05:57:44 10° N
Cosmos 990 Rocket 4.0 05:47:53 10° SSW 05:53:08 80° WNW 05:58:25 10° NNE
Cosmos 972 Rocket 4.4 05:47:52 10° SSW 05:53:22 84° ESE 05:59:36 10° NNE
MOS 1 Rocket 3.4 05:50:57 10° N 05:55:45 76° WNW 06:00:51 10° SSW
Tiangong 1 0.9 05:53:55 18° W 05:56:01 81° S 05:59:04 10° E
Ariane Rocket 4.1 05:51:15 10° NNE 05:56:12 50° E 06:01:09 10° S
Cosmos 2228 3.8 05:57:23 10° NNW 06:01:17 31° W 06:05:08 10° SSW
COBE Rocket 3.8 05:57:48 10° N 06:02:33 64° WNW 06:07:10 10° SSW
Cosmos 1174 3.2 06:02:59 10° NW 06:05:57 57° WSW 06:09:13 10° SSE
Cosmos 1812 Rocket 3.6 06:03:22 10° NNW 06:07:47 65° W 06:12:11 10° S
Cosmos 1943 4.0 06:02:16 10° NNW 06:07:48 57° ENE 06:13:20 10° SE
Cosmos 2098 Rocket 3.8 06:05:42 10° NNW 06:09:14 32° W 06:13:34 10° SSW
Lacrosse 5 3.2 06:06:16 10° W 06:10:31 26° NNW 06:14:47 10° NE
Cosmos 1603 3.8 06:06:53 10° NNW 06:12:33 62° WSW 06:18:07 10° S
BREEZE M DEB (TANK) 4.3 06:09:11 10° WNW 06:13:01 50° N 06:26:25 10° E
Cosmos 2084 Rocket 3.8 06:11:27 10° NNW 06:15:18 60° NE 06:19:17 10° SE
CZ-4B R/B 4.1 06:13:24 10° N 06:17:09 44° WNW 06:20:45 10° SW
Cosmos 1766 4.1 06:15:10 10° N 06:19:09 59° E 06:23:05 10° SSE
DELTA 2 R/B (1) 3.9 06:13:58 10° WSW 06:19:26 60° S 06:24:55 10° E
ADEOS Rocket 4.1 06:16:56 10° N 06:23:00 30° WNW 06:28:35 10° WSW
Meteor 1-31 Rocket 3.4 06:19:32 10° N 06:23:07 35° WNW 06:26:43 10° SW
Cosmos 2263 Rocket 3.6 06:18:00 10° S 06:23:13 43° ESE 06:28:26 10° NE
Cosmos 1125 Rocket 3.7 06:22:06 10° SSW 06:27:17 83° ESE 06:32:31 10° NNE
CENTAUR R/B 3.4 06:21:17 10° NW 06:28:41 45° WSW 06:36:28 10° S
